FW3030 Weather Reports


time (UTC)temp
F
wind
direction
speed
knots
gust
knots
rain 1hr
in
rain 24hr
in
rain mn
in
humidity
%
barometer
mb
20260906191609 82 161 0.9 4.3 0.00 0.00 0.00 70 1018.0
20260906190108 83 56 0.9 5.2 0.00 0.00 0.00 67 1017.6
20260906184603 84 140 0.9 4.3 0.00 0.00 0.00 65 1017.9
20260906183106 85 184 0.9 4.3 0.00 0.00 0.00 64 1017.8
20260906181604 85 148 1.7 6.1 0.00 0.00 0.00 64 1017.9
20260906180135 84 47 0.9 4.3 0.00 0.00 0.00 66 1017.9
20260906174606 84 178 0.9 7.8 0.00 0.00 0.00 67 1017.8
20260906173108 84 0 1.7 7.8 0.00 0.00 0.00 66 1017.9
20260906171606 84 101 0.9 4.3 0.00 0.00 0.00 68 1017.9
20260906170108 83 51 1.7 6.1 0.00 0.00 0.00 67 1018.0
20260906164605 83 62 0.9 6.1 0.00 0.00 0.00 69 1018.4
20260906163104 82 205 0.9 3.5 0.00 0.00 0.00 71 1018.3
20260906161602 81 118 0.9 4.3 0.00 0.00 0.00 74 1018.5
20260906160105 80 48 1.7 4.3 0.00 0.00 0.00 74 1018.6
20260906154606 78 70 0.9 4.3 0.00 0.00 0.00 79 1018.5
20260906153118 76 53 1.7 4.3 0.00 0.00 0.00 82 1018.7
20260906151608 75 360 0.9 2.6 0.00 0.00 0.00 84 1019.0
20260906150106 74 132 0.0 3.5 0.00 0.00 0.00 86 1018.9
20260906144608 73 92 0.0 4.3 0.00 0.00 0.00 88 1019.1
20260906143111 72 27 0.0 2.6 0.00 0.00 0.00 91 1019.2
20260906141612 71 0 0.0 3.5 0.00 0.00 0.00 92 1018.8
20260906140112 70 0 0.0 3.5 0.00 0.00 0.00 93 1018.8
20260906134615 69 170 0.9 2.6 0.00 0.00 0.00 94 1018.9
20260906133110 68 86 0.9 3.5 0.00 0.00 0.00 94 1018.7
20260906131604 67 0 0.0 2.6 0.00 0.00 0.00 94 1018.7
20260906130104 66 76 0.9 3.5 0.00 0.00 0.00 94 1018.7
20260906124600 66 0 0.0 2.6 0.00 0.00 0.00 93 1018.5
20260906123105 65 66 0.9 3.5 0.00 0.00 0.00 93 1018.3
20260906121607 65 71 0.0 2.6 0.00 0.00 0.00 93 1018.2
20260906114602 65 62 0.9 2.6 0.00 0.00 0.00 92 1018.3
20260906113105 64 0 0.0 1.7 0.00 0.00 0.00 91 1018.4
20260906111607 64 85 0.0 0.9 0.00 0.00 0.00 91 1018.4
20260906110105 65 0 0.0 0.0 0.00 0.00 0.00 91 1018.5
20260906104606 65 0 0.0 0.9 0.00 0.00 0.00 91 1018.4
20260906103112 65 0 0.0 0.9 0.00 0.00 0.00 91 1018.4
20260906101603 65 0 0.0 0.0 0.00 0.00 0.00 91 1018.3
20260906100105 66 0 0.0 1.7 0.00 0.00 0.00 91 1018.1
20260906094608 66 0 0.0 0.9 0.00 0.00 0.00 90 1017.9
20260906093107 66 0 0.0 0.9 0.00 0.00 0.00 90 1017.6
20260906091603 66 0 0.0 0.9 0.00 0.00 0.00 90 1017.3
20260906090118 66 0 0.0 0.9 0.00 0.00 0.00 90 1017.4
20260906084618 67 0 0.0 1.7 0.00 0.00 0.00 90 1017.1
20260906083116 67 0 0.0 1.7 0.00 0.00 0.00 90 1017.3
20260906081606 67 0 0.0 0.9 0.00 0.00 0.00 89 1017.3
20260906080127 68 0 0.0 0.9 0.00 0.00 0.00 89 1017.2
20260906074610 68 0 0.0 0.9 0.00 0.00 0.00 89 1017.2
20260906073114 68 0 0.0 1.7 0.00 0.00 0.00 89 1017.5
20260906071603 68 0 0.0 0.9 0.00 0.00 0.00 88 1017.8
20260906070111 69 0 0.0 0.9 0.00 0.00 0.00 88 1017.9
20260906064611 69 0 0.0 0.0 0.00 0.00 0.00 88 1018.1
20260906063103 69 0 0.0 0.9 0.00 0.00 0.00 88 1018.0
20260906061606 69 0 0.0 0.9 0.00 0.00 0.00 88 1018.1
20260906060106 69 0 0.0 1.7 0.00 0.00 0.00 87 1017.9
20260906054606 69 0 0.0 0.9 0.00 0.00 0.00 87 1017.9
20260906053105 69 0 0.0 0.0 0.00 0.00 0.00 86 1017.9
20260906051607 70 0 0.0 1.7 0.00 0.00 0.00 86 1017.9
20260906050109 70 0 0.0 1.7 0.00 0.00 0.00 86 1017.8
20260906044606 70 0 0.0 1.7 0.00 0.00 0.00 86 1017.8
20260906043104 70 0 0.0 2.6 0.00 0.00 0.00 86 1017.8
20260906041606 70 0 0.0 1.7 0.00 0.00 0.00 86 1017.9
20260906040104 70 0 0.0 1.7 0.00 0.00 0.00 85 1017.9
20260906034640 70 51 0.0 1.7 0.00 0.00 0.00 85 1018.0
20260906033104 70 44 0.0 1.7 0.00 0.00 0.00 85 1018.1
20260906031605 70 0 0.0 3.5 0.00 0.00 0.00 85 1017.9
20260906030108 71 41 0.9 2.6 0.00 0.00 0.00 84 1018.0
20260906024604 71 36 0.9 1.7 0.00 0.00 0.00 83 1018.0
20260906023105 71 36 0.9 2.6 0.00 0.00 0.00 83 1017.9
20260906021612 72 30 0.9 1.7 0.00 0.00 0.00 82 1017.7
20260906020108 72 28 0.0 1.7 0.00 0.00 0.00 81 1017.6
20260906014604 73 0 0.0 1.7 0.00 0.00 0.00 80 1017.5
20260906013109 74 24 0.0 1.7 0.00 0.00 0.00 79 1017.3
20260906011607 75 22 0.9 2.6 0.00 0.00 0.00 77 1016.8
20260906010107 75 37 0.9 2.6 0.00 0.00 0.00 76 1016.5
20260906004605 76 90 0.0 2.6 0.00 0.00 0.00 75 1016.0
20260906003101 77 0 0.0 2.6 0.00 0.00 0.00 73 1015.8
20260906001605 78 37 0.9 2.6 0.00 0.00 0.00 71 1015.6
20260906000112 79 0 0.0 1.7 0.00 0.00 0.00 70 1015.7
20260905234621 80 117 0.0 3.5 0.00 0.00 0.00 69 1015.5
20260905233110 80 79 0.9 6.1 0.00 0.00 0.00 67 1015.2
20260905231608 81 40 0.9 5.2 0.00 0.00 0.00 66 1015.4
20260905230109 82 36 1.7 6.1 0.00 0.00 0.00 65 1015.7
20260905224624 83 80 1.7 4.3 0.00 0.00 0.00 64 1015.8
20260905223107 83 49 2.6 6.1 0.00 0.00 0.00 63 1015.6
20260905221605 84 49 2.6 7.0 0.00 0.00 0.00 62 1015.6
20260905220118 85 76 1.7 4.3 0.00 0.00 0.00 62 1015.7
20260905214606 85 48 1.7 5.2 0.00 0.00 0.00 62 1015.7
20260905213104 86 36 2.6 6.1 0.00 0.00 0.00 61 1015.7
20260905211605 85 122 0.9 4.3 0.00 0.00 0.00 63 1015.6
20260905210109 84 36 1.7 7.8 0.00 0.00 0.00 65 1015.7
20260905204603 84 42 2.6 6.1 0.00 0.00 0.00 65 1016.1
20260905203117 84 103 2.6 8.7 0.00 0.00 0.00 66 1016.2
20260905201604 84 52 1.7 7.0 0.00 0.00 0.00 66 1016.7
20260905200108 84 40 1.7 6.1 0.00 0.00 0.00 66 1017.3
20260905194609 83 49 1.7 5.2 0.00 0.00 0.00 67 1017.4
20260905193104 82 71 0.9 3.5 0.00 0.00 0.00 70 1017.2